Location: *
(2.5500°S, 65.9667°W)
Time: 13:10:34
(UTC+00:00)

XW-2D - Pass Details

Date: 06 July 2022
Orbit: 495 x 515 km, 97.5° (Epoch: 15 August)

Event Time Altitude Azimuth Distance (km) Brightness Sun altitude
Rises 22:55:46 0° 201° (SSW) 2,592 ? -7.2°
Reaches altitude 10° 22:58:47 10° 229° (SW) 1,709 ? -7.9°
Maximum altitude 23:00:33 13° 258° (WSW) 1,520 ? -8.3°
Drops below altitude 10° 23:02:20 10° 287° (WNW) 1,710 ? -8.7°
Sets 23:05:22 0° 315° (NW) 2,595 ? -9.4°
